Location: Fort Wayne
(41.1310°N, 85.1290°W)
Time: 19:54:10
(UTC-04:00)

COSMOS 2406 - Visible Passes

Search period start: 19 September 2014 00:00
Search period end: 29 September 2014 00:00
Orbit: 844 x 865 km, 71.0° (Epoch: 18 September)

Date Brightness Start Highest point End Pass type
(mag) Time Alt. Az. Time Alt. Az. Time Alt. Az.
19 Sep 6.1 04:53:59 10° ESE 04:55:41 11° E 04:57:22 10° ENE visible
19 Sep 3.3 06:33:20 10° SSW 06:39:05 88° ESE 06:44:52 10° NNE visible
20 Sep 6.0 04:42:40 10° ESE 04:44:32 12° E 04:46:24 10° ENE visible
20 Sep 3.3 06:22:12 10° SSW 06:27:57 90° ESE 06:33:44 10° NNE visible
21 Sep 5.9 04:31:21 10° ESE 04:33:23 12° E 04:35:24 10° ENE visible
21 Sep 3.2 06:11:04 10° SSW 06:16:49 89° WNW 06:22:36 10° NNE visible
22 Sep 5.9 04:20:04 10° ESE 04:22:14 12° E 04:24:24 10° ENE visible
22 Sep 3.2 06:00:14 12° SSW 06:05:42 87° WNW 06:11:28 10° NNE visible
23 Sep 5.8 04:08:47 10° ESE 04:11:05 13° E 04:13:23 10° ENE visible
23 Sep 3.2 05:50:26 20° SSW 05:54:34 86° WNW 06:00:20 10° NNE visible
24 Sep 5.7 03:58:20 12° ESE 03:59:56 13° E 04:02:21 10° ENE visible
24 Sep 3.1 05:40:28 30° SSW 05:43:26 84° WNW 05:49:12 10° NNE visible
25 Sep 5.7 03:48:16 13° ESE 03:48:47 13° E 03:51:20 10° ENE visible
25 Sep 3.1 05:30:24 45° SSW 05:32:18 83° WNW 05:38:04 10° NNE visible
26 Sep 5.7 03:38:06 13° E 03:38:06 13° E 03:40:17 10° ENE visible
26 Sep 3.1 05:20:13 63° SW 05:21:10 81° WNW 05:26:56 10° NNE visible
26 Sep 5.0 07:03:26 10° WNW 07:06:26 14° NW 07:09:25 10° NNW visible
27 Sep 5.8 03:27:50 13° E 03:27:50 13° E 03:29:15 10° ENE visible
27 Sep 3.1 05:09:58 80° W 05:10:02 80° WNW 05:15:48 10° NNE visible
27 Sep 5.0 06:52:24 10° WNW 06:55:19 14° NW 06:58:14 10° NNW visible
28 Sep 5.9 03:17:30 12° ENE 03:17:30 12° ENE 03:18:12 10° ENE visible
28 Sep 3.3 04:59:37 67° N 04:59:37 67° N 05:04:40 10° NNE visible
28 Sep 5.0 06:41:44 11° WNW 06:44:12 14° NW 06:47:03 10° NNW visible
